Simultaneous Nadir Overpasses (SNOs) Predictions

Prediction of SNOs between GOES-17 and AQUA Satellite Orbit:

Table of predicted SNOs for the next 14.0 days since TLE Epoch: 4/6/2024
Index Date Time (GOES-17) GOES-17 Lat,Lon AQUA Lat,Lon Distance(km) Time Diff (sec)
1 04/07/2024 20:57:36 -0.01,-104.67 0.39,-102.73 220.07 80
2 04/08/2024 09:17:53 0.01,-104.69 0.66,-107.64 335.73 80
3 04/10/2024 08:59:15 0.01,-104.71 -0.18,-103.74 109.88 80
4 04/10/2024 21:19:40 -0.01,-104.69 -0.89,-108.67 453.88 80
5 04/12/2024 21:03:42 -0.01,-104.70 -0.01,-104.78 8.34 80
6 04/14/2024 20:50:22 -0.02,-104.72 0.79,-100.86 438.14 80
7 04/15/2024 09:10:39 0.02,-104.74 0.24,-105.77 117.42 80
8 04/17/2024 08:51:59 0.03,-104.76 -0.60,-101.86 329.36 80
9 04/17/2024 21:12:23 -0.03,-104.74 -0.50,-106.79 234.01 80
10 04/19/2024 20:59:03 -0.03,-104.76 0.38,-102.89 213.56 80
